Regional Weather Roundup
Issued by NWS

Home | Current Version | Previous Version | Graphics & Text | Print | Product List | Glossary On
Versions: 1 2 3 4 5 6 7 8 9 10 11 12 13 14 15 16 17 18 19 20 21 22 23 24 25 26 27 28 29 30 31 32 33 34 35 36 37 38 39 40 41 42 43 44 45 46 47 48 49 50
000
ASUS43 KFSD 312310
RWRSD

WEATHER ROUNDUP FOR SOUTH DAKOTA
NATIONAL WEATHER SERVICE SIOUX FALLS SD
600 PM CDT SUN AUG 31 2014

NOTE: "FAIR" INDICATES FEW OR NO CLOUDS BELOW 12,000 FEET WITH NO
SIGNIFICANT WEATHER AND/OR OBSTRUCTIONS TO VISIBILITY.


SDZ001>005-009-010-012>017-010000-
NORTHWEST AND NORTH CENTRAL SOUTH DAKOTA

CITY           SKY/WX    TMP DP  RH WIND       PRES   REMARKS
BUFFALO          N/A     68  50  52 NE10      29.72S
FAITH            N/A     61  59  93 NW10      29.77S
MOBRIDGE       CLOUDY    72  60  66 N3        29.67F
$$

SDZ012>016-024>037-041>051-057-063-072>074-010000-
SOUTHWEST AND SOUTH CENTRAL SOUTH DAKOTA

CITY           SKY/WX    TMP DP  RH WIND       PRES   REMARKS
RAPID CTY ARPT LGT RAIN  56  54  93 NW7       29.81R
PIERRE         CLOUDY    70  59  68 W5        29.70R
CUSTER         CLOUDY    55  46  71 VRB6      29.87R
ELLSWORTH AFB  CLOUDY    57  55  94 NW3       29.81
PHILIP         CLOUDY    72  53  51 N12       29.72S
PINE RIDGE     CLOUDY    60  55  83 N20G29    29.80R
WINNER         FAIR      72  59  63 CALM      29.70F
$$

SDZ004>011-016>023-039-040-010000-
NORTHEAST SOUTH DAKOTA

CITY           SKY/WX    TMP DP  RH WIND       PRES   REMARKS
ABERDEEN       CLOUDY    69  64  84 SW9       29.68F
WATERTOWN      LGT RAIN  68  63  84 W6        29.69F
SISSETON         N/A     69  65  86 N6        29.66F
$$

SDZ017-020-022-023-036>040-048>070-010000-
SOUTHEAST SOUTH DAKOTA

CITY           SKY/WX    TMP DP  RH WIND       PRES   REMARKS
SIOUX FALLS    CLOUDY    73  61  65 NW15G24   29.71R THUNDER
HURON          CLOUDY    67  59  75 CALM      29.67F
CHAMBERLAIN    CLOUDY    67  60  79 CALM      29.69F
MITCHELL       CLOUDY    72  62  71 N5        29.70F
YANKTON        CLOUDY    72  61  68 NW8       29.72R
$$

ABBREVIATIONS USED IN REMARKS
   TC - TEMPERATURE IN CELSIUS
  WCI - WIND CHILL INDEX
   HX - HEAT INDEX
  VSB - VISIBILITY




USA.gov is the U.S. government's official web portal to all federal, state and local government web resources and services.